Theta_e
302 304 305 306 306 307 307 308 308 309 310 308 310 313 313 313 313 313 313 314 315 316 315 315 315 314 313 314 314 315 318 319 318 320 319 318 317 317 317 318 318 318 318 318 318
301 303 305 305 306 306 307 308 309 310 310 308 310 313 314 312 311 314 314 313 313 312 314 314 314 316 317 317 316 316 317 317 317 316 316 315 315 315 315 317 317 317 318 317 318
301 302 304 306 306 307 308 309 310 310 312 311 310 313 315 316 311 311 313 312 312 310 312 313 312 315 316 315 315 315 318 316 314 315 315 314 314 315 315 315 316 316 317 318 318
301 302 304 307 308 309 309 310 310 311 314 316 313 315 314 310 311 311 311 311 311 310 310 311 312 314 313 311 313 311 315 314 313 313 314 313 314 314 313 313 314 315 317 318 318
301 302 304 306 308 309 310 310 311 313 314 314 314 315 309 311 311 311 310 310 310 309 309 310 310 312 310 312 312 314 313 313 313 314 314 313 312 312 312 312 313 314 316 316 316
300 302 303 305 308 309 309 310 311 313 314 314 310 310 309 310 310 310 310 310 309 309 309 309 310 310 312 311 312 313 313 312 313 313 312 311 311 311 311 311 312 314 315 315 314
304 301 303 304 308 310 309 310 312 313 314 316 313 311 310 311 310 310 310 309 309 309 310 308 308 309 310 310 311 312 311 311 310 310 310 310 310 310 310 311 312 313 314 314 313
309 305 303 305 307 310 309 309 312 313 313 315 315 312 311 310 310 310 310 310 309 309 309 308 308 310 309 309 309 309 310 310 310 310 310 309 311 311 311 311 311 312 313 313 312
312 307 303 306 309 310 308 310 312 312 314 314 314 311 310 310 310 310 310 310 309 309 308 307 308 308 309 310 310 309 310 310 309 309 309 310 311 311 311 311 312 312 312 311 311
312 310 304 307 310 308 310 312 312 312 315 313 312 311 310 311 310 310 310 309 310 310 311 310 308 309 310 311 312 311 311 310 311 311 311 311 312 312 312 311 312 312 311 311 311
312 312 305 307 309 308 309 310 311 312 311 312 312 311 311 311 310 309 310 309 309 311 312 308 310 311 311 310 310 310 310 311 312 311 311 313 313 312 312 312 312 312 311 311 311
313 313 306 306 309 308 309 309 308 309 312 310 311 312 312 312 311 312 312 313 311 312 309 311 311 310 310 310 310 311 312 313 311 311 312 313 313 312 311 313 316 320 320 320 319
313 312 307 307 310 308 308 308 310 309 313 314 314 314 310 309 310 313 311 312 311 311 310 311 309 309 309 310 312 312 312 312 313 313 313 312 313 312 314 317 317 316 316 316 316
312 312 308 309 308 307 307 309 309 311 315 314 315 309 312 309 313 311 310 311 312 311 310 310 309 310 310 311 312 313 311 312 313 314 315 312 314 313 316 317 317 315 314 313 314
312 312 309 306 309 307 308 310 311 313 316 309 308 307 311 313 313 312 309 311 311 311 311 311 312 311 311 311 312 312 312 313 313 314 314 313 314 313 316 318 319 317 314 312 311
312 312 309 308 307 308 309 310 313 317 316 309 307 308 313 312 313 311 312 310 310 311 310 312 310 309 310 311 311 311 313 312 310 312 317 312 314 314 318 319 316 313 312 310 309
312 311 309 309 307 309 310 312 318 315 308 309 307 308 312 312 313 311 312 314 313 310 312 313 313 309 310 313 312 313 317 322 318 317 316 312 315 316 318 315 313 311 310 309 308
312 311 308 311 310 310 310 315 318 311 309 307 308 311 313 310 312 311 312 313 313 313 313 314 313 313 311 313 313 314 316 319 321 320 318 315 318 316 318 313 311 311 310 309 308
312 310 312 313 313 311 312 316 313 310 308 308 308 309 310 311 310 310 311 313 313 313 313 315 316 312 312 312 312 315 317 316 318 317 318 316 315 316 317 314 312 312 311 310 308
312 304 308 309 310 308 312 313 310 307 307 308 308 308 308 308 310 311 310 313 313 314 313 314 316 314 312 312 314 314 315 319 318 320 319 316 316 319 319 314 312 311 311 309 308
304 309 309 308 308 311 313 311 308 307 308 309 309 309 308 309 310 310 311 311 313 314 313 314 315 315 313 314 314 315 318 317 317 318 320 319 317 318 315 313 312 310 309 308 307
302 314 306 307 311 306 310 308 308 309 307 308 309 309 309 310 310 310 311 312 312 314 315 314 317 316 315 313 312 313 315 316 318 318 318 319 317 315 314 312 311 310 309 307 307
312 306 306 304 311 309 308 310 310 310 308 308 309 309 308 311 312 310 311 311 312 314 315 315 317 318 316 317 315 316 315 315 315 316 318 318 317 316 314 313 310 309 308 306 306
307 310 310 305 303 308 308 309 309 309 309 308 309 309 309 309 308 310 310 311 311 313 314 315 317 316 319 316 314 316 315 315 316 320 316 316 316 315 313 312 309 308 306 306 305
302 308 307 311 308 307 308 308 310 312 311 308 308 309 310 312 309 309 309 309 309 310 314 317 318 317 316 315 315 315 316 316 317 317 319 315 316 315 313 310 309 307 306 306 306
311 305 304 306 304 307 308 310 310 310 312 309 309 308 308 312 312 310 309 309 309 315 316 314 318 317 317 316 317 317 316 315 314 314 315 316 315 311 311 309 309 307 306 306 306
304 302 303 309 306 307 310 310 309 310 309 309 308 308 308 308 308 309 308 307 308 315 317 317 318 317 319 316 315 317 315 315 315 313 314 315 314 311 310 309 307 307 306 305 305
Wind_Speed
20 15 13 11 10 10 11 11 12 12 11 7 8 11 14 18 19 16 11 7 9 11 13 6 9 4 3 4 3 1 2 2 1 3 7 13 13 12 10 13 14 10 18 24 29
21 16 13 12 11 11 11 12 11 10 8 6 7 9 11 11 15 17 10 11 12 13 11 12 9 5 4 3 3 2 1 2 0 6 9 13 15 16 13 17 16 18 21 27 26
24 17 14 12 11 10 11 12 10 9 7 4 6 6 3 6 4 7 10 10 11 12 10 6 4 3 7 3 4 2 1 0 3 5 10 14 17 12 14 14 17 21 21 21 23
26 19 14 12 10 10 11 11 9 8 7 6 5 2 3 2 4 4 5 7 6 8 9 6 7 3 3 3 1 1 1 2 4 9 10 14 12 13 11 16 16 18 16 17 21
29 21 14 11 10 10 11 10 6 6 7 7 7 4 4 7 4 3 4 7 8 8 8 4 9 3 3 1 2 2 2 3 8 11 8 12 13 13 14 15 15 15 15 18 19
33 26 15 12 10 11 11 9 4 4 6 6 7 5 3 11 1 3 5 7 9 8 7 8 4 2 3 3 2 2 6 8 6 6 10 10 17 9 11 18 18 17 17 17 19
36 30 18 13 10 11 10 7 2 3 4 5 4 5 4 6 3 5 5 6 5 6 4 4 3 3 1 2 3 4 8 7 5 8 8 8 14 14 16 16 20 18 18 17 20
38 36 20 14 10 11 12 5 3 2 1 2 3 2 3 1 2 1 3 5 5 7 4 6 6 6 4 4 3 2 1 9 6 14 7 6 17 18 18 19 21 21 19 19 20
40 40 22 13 9 11 12 3 5 1 1 2 2 1 4 3 3 2 1 3 5 5 6 6 5 4 2 5 1 2 10 16 10 6 11 9 20 16 21 20 21 21 21 20 22
42 43 23 10 9 12 5 8 4 1 1 3 1 1 1 1 3 2 1 4 2 3 2 5 4 2 3 6 6 15 15 8 15 11 16 17 22 21 20 20 21 22 20 21 21
42 45 26 7 6 10 3 2 0 1 2 1 1 0 3 5 5 6 5 3 2 2 4 3 1 3 6 5 8 9 10 14 15 14 15 21 23 23 17 15 16 18 19 20 21
42 45 27 5 1 6 5 3 2 1 2 2 2 4 3 1 2 8 9 4 2 6 0 1 1 2 6 2 1 5 11 14 9 7 16 18 27 18 8 9 11 15 17 18 19
41 44 25 6 1 4 9 4 3 1 1 2 2 0 1 0 3 6 8 3 4 1 1 2 4 3 3 2 6 7 8 13 18 20 16 10 13 1 3 8 12 15 16 17 18
39 41 25 3 2 2 2 6 2 1 1 3 4 2 3 1 4 4 6 2 0 3 1 0 2 3 2 3 7 10 4 14 19 15 8 7 8 7 6 9 14 16 19 19 21
38 39 23 5 1 1 1 8 3 1 3 4 3 2 4 2 2 7 5 2 0 3 2 2 4 4 1 1 6 7 14 16 16 11 8 1 6 4 9 8 14 18 20 20 21
38 38 19 4 2 2 4 1 1 2 5 4 2 2 2 4 3 3 5 5 1 1 0 3 2 2 1 6 3 11 11 2 3 2 2 2 5 11 5 6 13 19 22 21 22
37 37 14 4 1 1 2 2 2 4 1 3 2 2 3 1 1 4 3 6 4 5 5 5 1 1 1 7 2 13 10 4 3 2 3 1 11 9 1 6 10 16 19 20 20
38 31 12 7 3 1 1 1 5 2 3 3 2 3 2 1 2 2 2 1 3 1 1 5 3 1 2 4 5 4 4 2 5 4 12 15 6 3 8 4 8 13 16 18 20
37 20 2 1 2 7 2 3 4 5 4 7 4 3 2 2 2 1 2 3 3 2 3 4 4 2 7 2 3 2 2 2 4 8 6 4 5 7 6 6 14 18 21 21 21
31 12 4 4 7 4 2 5 4 3 5 3 6 4 5 4 2 1 3 5 4 6 0 3 5 1 1 1 3 3 2 3 1 5 6 6 14 9 5 11 14 19 20 21 20
11 5 1 2 8 2 4 5 5 5 6 6 7 5 5 5 5 4 3 4 6 8 4 4 3 2 6 4 3 2 3 2 2 3 4 7 6 3 1 7 13 16 18 20 20
7 4 1 5 3 1 3 5 1 4 5 3 4 6 7 9 6 5 7 5 9 9 5 7 3 5 7 11 9 8 5 3 3 3 6 7 13 8 2 7 13 16 18 19 19
6 4 3 3 5 4 3 3 3 5 6 7 9 6 4 7 2 7 5 3 9 8 7 7 3 4 2 2 2 5 7 7 7 6 8 5 7 7 8 16 14 16 19 18 18
2 4 3 1 1 3 4 4 4 4 5 5 4 5 4 6 5 3 6 3 8 9 9 9 7 9 8 9 8 13 17 15 9 5 14 18 28 24 21 17 17 20 18 18 18
2 4 2 3 2 2 1 1 4 4 5 6 4 10 8 6 5 7 7 6 8 6 7 8 8 14 18 19 18 20 21 18 18 18 12 21 22 24 21 13 18 17 17 19 20
2 2 1 4 2 4 5 5 8 8 7 6 8 9 11 7 9 8 7 5 8 6 8 6 5 6 9 16 17 21 19 18 20 19 16 19 23 7 11 15 18 17 17 18 19
3 2 1 3 4 4 6 8 8 6 7 6 8 7 9 16 14 11 8 7 7 7 10 7 4 3 6 4 14 14 7 8 5 8 10 11 16 15 16 15 17 18 16 15 18
Wind_Direction
13 16 16 14 17 16 12 13 11 9 6 26 86 96 91 80 72 61 48 36 29 29 39 62 48 54 66 82 59 141 140 190 301 358 311 326 329 335 320 300 317 295 311 309 317
13 11 12 11 8 9 8 6 10 18 15 34 109 108 83 78 66 54 33 39 40 36 38 34 25 36 69 48 43 46 176 147 63 311 317 318 321 320 316 315 310 304 303 307 317
11 12 13 14 13 13 5 1 7 19 27 31 136 141 35 8 60 26 19 31 40 40 44 42 31 50 61 58 26 72 68 170 293 319 333 320 311 322 314 312 323 314 308 308 313
13 12 14 15 19 10 2 359 8 30 52 72 133 144 22 53 76 323 21 18 54 50 50 51 28 70 74 79 64 266 218 277 312 317 313 308 316 301 308 307 306 307 303 306 308
14 11 10 10 9 8 4 5 22 49 63 76 113 133 50 80 90 61 49 40 52 27 41 46 46 74 56 110 346 149 307 265 298 296 298 294 294 306 295 310 312 306 302 308 309
16 10 6 1 360 2 8 9 38 72 70 86 108 105 84 83 305 129 56 60 50 59 53 41 38 50 90 2 13 315 287 297 295 296 299 302 310 303 300 313 311 307 304 306 307
13 9 1 354 346 351 360 358 87 78 65 79 94 70 71 76 120 128 59 49 65 49 59 44 86 61 32 2 339 322 310 319 273 336 305 327 295 300 309 316 315 307 309 309 308
9 6 359 350 342 347 344 326 156 128 76 76 94 54 86 126 230 202 32 37 47 29 66 45 98 89 25 319 323 337 302 334 334 311 299 328 297 307 315 317 307 305 302 300 303
6 3 358 352 349 351 336 162 147 13 162 165 53 32 113 72 35 290 23 7 334 18 50 74 68 63 59 1 316 41 315 313 319 284 311 305 297 312 306 305 302 301 299 295 297
2 0 358 349 351 3 71 131 133 47 121 41 38 197 351 50 327 342 10 353 24 338 32 39 56 115 35 1 335 307 317 304 310 309 313 300 294 305 304 299 299 305 306 301 299
360 358 355 348 354 10 145 142 279 205 42 290 134 149 297 321 51 44 359 341 47 57 343 44 324 98 339 297 281 290 286 303 304 307 321 303 302 307 313 307 318 331 330 317 306
358 357 353 344 33 21 50 69 65 48 291 187 236 273 273 316 74 21 15 7 330 327 88 324 171 114 333 309 358 313 309 314 300 303 314 308 298 312 319 6 18 6 360 355 345
356 357 355 346 157 68 66 37 27 73 273 268 209 117 65 204 81 28 11 336 290 306 355 274 104 338 326 139 347 321 301 314 300 315 293 300 292 50 51 23 22 11 356 353 347
355 356 354 28 122 39 89 2 333 120 273 196 172 95 28 100 98 31 12 304 322 347 41 232 102 353 338 164 349 315 278 299 303 322 312 14 292 308 353 352 16 7 359 352 346
350 352 350 339 21 125 333 343 133 199 264 119 111 39 50 77 357 25 12 27 53 318 254 63 329 353 290 340 327 298 310 290 299 287 289 49 253 313 347 352 2 356 353 354 348
345 347 342 306 255 163 335 66 108 194 242 167 79 57 90 27 45 15 359 30 47 66 140 313 329 216 302 303 303 320 289 307 190 216 275 56 329 295 340 356 350 349 352 354 345
340 341 328 242 194 212 355 113 185 225 114 164 145 86 132 31 124 15 52 44 40 349 359 326 113 153 225 316 344 351 352 351 329 321 284 150 306 277 328 46 7 348 346 346 342
336 338 314 227 221 264 142 146 224 161 195 124 132 124 182 35 131 30 75 92 80 80 321 353 161 6 21 331 319 352 352 37 304 299 299 298 241 322 151 76 11 2 351 344 344
335 335 335 199 239 175 141 219 241 199 158 160 131 154 173 222 7 1 165 209 183 194 23 330 260 274 329 323 273 105 313 349 248 265 278 239 261 191 188 339 359 354 349 351 342
334 317 256 347 163 128 177 240 238 211 145 166 197 181 185 188 206 223 211 179 187 192 335 181 291 263 293 228 101 282 73 258 159 295 287 262 286 262 281 342 339 347 343 341 338
332 323 184 151 158 130 221 229 228 222 171 184 194 167 192 182 200 205 205 184 202 186 181 171 213 241 308 196 264 209 203 168 246 246 282 301 295 132 335 335 333 335 335 336 334
343 298 299 175 210 216 203 198 230 205 193 195 169 191 191 178 198 217 213 229 186 155 188 196 192 276 283 307 269 242 241 182 245 251 242 283 284 127 89 344 339 335 327 331 328
316 271 278 168 232 217 223 225 235 198 199 198 199 196 176 179 179 209 196 228 170 173 186 169 194 299 263 152 148 214 215 228 247 252 234 267 274 173 264 344 338 328 327 325 321
278 296 275 68 7 204 183 210 226 230 219 187 176 142 153 191 229 216 218 233 196 205 179 175 205 218 248 285 293 277 273 266 235 238 275 256 281 297 322 330 327 335 328 323 321
194 249 323 286 203 184 250 219 204 210 197 187 200 207 179 188 198 224 224 261 231 216 185 198 239 236 247 259 260 260 274 270 252 252 251 283 288 300 317 319 322 322 327 323 330
275 268 355 291 257 217 196 219 225 229 199 203 216 206 197 193 191 193 203 214 244 177 180 188 253 246 266 264 265 271 270 265 262 262 259 263 275 302 310 312 318 318 323 324 325
317 324 49 281 268 216 225 225 226 213 233 231 207 205 216 231 232 245 236 262 240 196 191 186 222 241 272 336 301 280 259 213 204 230 245 264 284 309 307 313 315 314 314 320 317